| time (UTC) | temp F | wind direction | speed MPH | gust MPH | rain 1hr in | rain 24hr in | rain mn in | humidity % | barometer mb |
| 20260509122504 | 72 | 320 | 0.0 | 2.0 | 0.00 | 0.00 | 0.00 | 95 | 1011.1 |
| 20260509122007 | 72 | 360 | 0.0 | 2.0 | 0.00 | 0.00 | 0.00 | 94 | 1011.6 |
| 20260509122003 | 72 | 320 | 0.0 | 2.0 | 0.00 | 0.00 | 0.00 | 94 | 1010.9 |
| 20260509121508 | 72 | 5 | 0.0 | 3.0 | 0.00 | 0.00 | 0.00 | 95 | 1011.4 |
| 20260509121005 | 72 | 320 | 0.0 | 3.0 | 0.00 | 0.00 | 0.00 | 94 | 1010.6 |
| 20260509120506 | 72 | 9 | 0.0 | 3.0 | 0.00 | 0.00 | 0.00 | 94 | 1011.4 |
| 20260509120504 | 72 | 320 | 0.0 | 2.0 | 0.00 | 0.00 | 0.00 | 94 | 1010.7 |
| 20260509120022 | 72 | 319 | 1.0 | 2.0 | 0.00 | 0.00 | 0.00 | 94 | 1010.9 |
| 20260509120016 | 72 | 16 | 0.0 | 2.0 | 0.00 | 0.00 | 0.00 | 94 | 1011.6 |
| 20260509115505 | 72 | 336 | 0.0 | 2.0 | 0.00 | 0.00 | 0.00 | 94 | 1011.6 |
| 20260509115503 | 72 | 333 | 1.0 | 4.0 | 0.00 | 0.00 | 0.00 | 94 | 1010.9 |
| 20260509115009 | 72 | 24 | 0.0 | 4.0 | 0.00 | 0.00 | 0.00 | 94 | 1011.6 |
| 20260509115007 | 72 | 330 | 0.0 | 4.0 | 0.00 | 0.00 | 0.00 | 94 | 1010.9 |
| 20260509114540 | 72 | 9 | 1.0 | 4.0 | 0.00 | 0.00 | 0.00 | 94 | 1011.8 |
| 20260509114523 | 72 | 328 | 1.0 | 3.0 | 0.00 | 0.00 | 0.00 | 94 | 1011.0 |
| 20260509114004 | 72 | 324 | 1.0 | 2.0 | 0.00 | 0.00 | 0.00 | 94 | 1011.3 |
| 20260509113505 | 72 | 360 | 0.0 | 2.0 | 0.00 | 0.00 | 0.00 | 94 | 1011.9 |
| 20260509113024 | 72 | 352 | 0.0 | 0.0 | 0.00 | 0.00 | 0.00 | 94 | 1011.9 |
| 20260509112507 | 72 | 265 | 0.0 | 2.0 | 0.00 | 0.00 | 0.00 | 94 | 1011.2 |
| 20260509112016 | 72 | 352 | 0.0 | 0.0 | 0.00 | 0.00 | 0.00 | 94 | 1012.0 |
| 20260509112008 | 72 | 265 | 0.0 | 2.0 | 0.00 | 0.00 | 0.00 | 94 | 1011.3 |
| 20260509111520 | 72 | 352 | 0.0 | 1.0 | 0.00 | 0.00 | 0.00 | 94 | 1012.0 |
| 20260509111512 | 72 | 265 | 0.0 | 2.0 | 0.00 | 0.00 | 0.00 | 94 | 1011.3 |
| 20260509111005 | 72 | 352 | 0.0 | 2.0 | 0.00 | 0.00 | 0.00 | 94 | 1012.3 |
| 20260509111003 | 72 | 265 | 0.0 | 2.0 | 0.00 | 0.00 | 0.00 | 94 | 1011.6 |
| 20260509110506 | 72 | 352 | 0.0 | 2.0 | 0.00 | 0.00 | 0.00 | 94 | 1012.3 |
| 20260509110014 | 72 | 302 | 0.0 | 2.0 | 0.00 | 0.00 | 0.00 | 94 | 1012.3 |
| 20260509110012 | 72 | 265 | 0.0 | 2.0 | 0.00 | 0.00 | 0.00 | 94 | 1011.6 |
| 20260509105510 | 72 | 302 | 0.0 | 2.0 | 0.00 | 0.00 | 0.00 | 94 | 1011.8 |
| 20260509105504 | 72 | 306 | 0.0 | 2.0 | 0.00 | 0.00 | 0.00 | 94 | 1012.5 |
| 20260509105008 | 72 | 62 | 0.0 | 2.0 | 0.00 | 0.00 | 0.00 | 94 | 1012.4 |
| 20260509105004 | 72 | 307 | 1.0 | 2.0 | 0.00 | 0.00 | 0.00 | 94 | 1011.8 |
| 20260509104522 | 72 | 62 | 0.0 | 0.0 | 0.00 | 0.00 | 0.00 | 94 | 1012.2 |
| 20260509104510 | 72 | 308 | 1.0 | 2.0 | 0.00 | 0.00 | 0.00 | 94 | 1011.5 |
| 20260509104009 | 72 | 323 | 0.0 | 2.0 | 0.00 | 0.00 | 0.00 | 94 | 1011.6 |
| 20260509104006 | 72 | 62 | 0.0 | 2.0 | 0.00 | 0.00 | 0.00 | 94 | 1012.3 |
| 20260509103509 | 72 | 323 | 0.0 | 2.0 | 0.00 | 0.00 | 0.00 | 94 | 1011.8 |
| 20260509103507 | 72 | 62 | 0.0 | 2.0 | 0.00 | 0.00 | 0.00 | 94 | 1012.5 |
| 20260509103011 | 72 | 62 | 0.0 | 2.0 | 0.00 | 0.00 | 0.00 | 94 | 1012.7 |
| 20260509102505 | 72 | 323 | 0.0 | 2.0 | 0.00 | 0.00 | 0.00 | 94 | 1012.0 |
| 20260509102011 | 72 | 323 | 0.0 | 2.0 | 0.00 | 0.00 | 0.00 | 94 | 1012.0 |
| 20260509101530 | 72 | 323 | 0.0 | 2.0 | 0.00 | 0.00 | 0.00 | 94 | 1011.8 |
| 20260509101526 | 72 | 360 | 0.0 | 2.0 | 0.00 | 0.00 | 0.00 | 94 | 1012.4 |
| 20260509101005 | 72 | 311 | 1.0 | 2.0 | 0.00 | 0.00 | 0.00 | 94 | 1011.6 |
| 20260509101003 | 72 | 350 | 0.0 | 2.0 | 0.00 | 0.00 | 0.00 | 94 | 1012.3 |
| 20260509100507 | 71 | 346 | 0.0 | 2.0 | 0.00 | 0.00 | 0.00 | 94 | 1012.0 |
| 20260509100012 | 71 | 163 | 0.0 | 1.0 | 0.00 | 0.00 | 0.00 | 94 | 1011.0 |
| 20260509095509 | 71 | 163 | 0.0 | 2.0 | 0.00 | 0.00 | 0.00 | 94 | 1010.8 |
| 20260509095507 | 71 | 229 | 0.0 | 2.0 | 0.00 | 0.00 | 0.00 | 94 | 1011.5 |
| 20260509095006 | 71 | 163 | 0.0 | 2.0 | 0.00 | 0.00 | 0.00 | 94 | 1010.7 |
| 20260509094523 | 71 | 229 | 0.0 | 2.0 | 0.00 | 0.00 | 0.00 | 94 | 1011.1 |
| 20260509094521 | 71 | 163 | 0.0 | 2.0 | 0.00 | 0.00 | 0.00 | 94 | 1010.5 |
| 20260509094007 | 71 | 143 | 1.0 | 1.0 | 0.00 | 0.00 | 0.00 | 94 | 1010.5 |
| 20260509093505 | 71 | 132 | 1.0 | 2.0 | 0.00 | 0.00 | 0.00 | 94 | 1010.4 |
| 20260509093023 | 72 | 229 | 0.0 | 0.0 | 0.00 | 0.00 | 0.00 | 94 | 1011.0 |
| 20260509093020 | 72 | 132 | 0.0 | 2.0 | 0.00 | 0.00 | 0.00 | 94 | 1010.4 |
| 20260509092512 | 72 | 229 | 0.0 | 2.0 | 0.00 | 0.00 | 0.00 | 94 | 1011.1 |
| 20260509092506 | 72 | 132 | 0.0 | 2.0 | 0.00 | 0.00 | 0.00 | 94 | 1010.3 |
| 20260509092012 | 72 | 132 | 0.0 | 2.0 | 0.00 | 0.00 | 0.00 | 94 | 1010.3 |
| 20260509092007 | 72 | 229 | 0.0 | 2.0 | 0.00 | 0.00 | 0.00 | 94 | 1011.1 |
| 20260509091518 | 72 | 132 | 0.0 | 2.0 | 0.00 | 0.00 | 0.00 | 94 | 1010.2 |
| 20260509091006 | 72 | 132 | 0.0 | 2.0 | 0.00 | 0.00 | 0.00 | 94 | 1010.1 |
| 20260509090511 | 72 | 175 | 0.0 | 1.0 | 0.00 | 0.00 | 0.00 | 94 | 1011.0 |
| 20260509090041 | 72 | 190 | 0.0 | 0.0 | 0.00 | 0.00 | 0.00 | 94 | 1010.9 |
| 20260509090010 | 72 | 147 | 0.0 | 1.0 | 0.00 | 0.00 | 0.00 | 94 | 1010.2 |
| 20260509085506 | 72 | 190 | 0.0 | 0.0 | 0.00 | 0.00 | 0.00 | 94 | 1011.0 |
| 20260509085003 | 72 | 190 | 0.0 | 1.0 | 0.00 | 0.00 | 0.00 | 94 | 1011.2 |
| 20260509084521 | 72 | 190 | 0.0 | 1.0 | 0.00 | 0.00 | 0.00 | 94 | 1011.3 |
| 20260509084512 | 72 | 147 | 0.0 | 2.0 | 0.00 | 0.00 | 0.00 | 94 | 1010.7 |
| 20260509084010 | 72 | 190 | 0.0 | 2.0 | 0.00 | 0.00 | 0.00 | 94 | 1011.4 |
| 20260509084007 | 72 | 147 | 0.0 | 2.0 | 0.00 | 0.00 | 0.00 | 94 | 1010.8 |
| 20260509083508 | 72 | 190 | 0.0 | 2.0 | 0.00 | 0.00 | 0.00 | 94 | 1011.5 |
| 20260509083040 | 72 | 190 | 0.0 | 0.0 | 0.00 | 0.00 | 0.00 | 94 | 1011.5 |
| 20260509083006 | 72 | 147 | 0.0 | 2.0 | 0.00 | 0.00 | 0.00 | 94 | 1010.9 |
| 20260509082506 | 72 | 190 | 0.0 | 0.0 | 0.00 | 0.00 | 0.00 | 93 | 1011.7 |
| 20260509082503 | 72 | 147 | 0.0 | 2.0 | 0.00 | 0.00 | 0.00 | 93 | 1011.1 |
| 20260509082016 | 72 | 190 | 0.0 | 2.0 | 0.00 | 0.00 | 0.00 | 93 | 1011.8 |
| 20260509082007 | 72 | 147 | 0.0 | 2.0 | 0.00 | 0.00 | 0.00 | 93 | 1011.2 |
| 20260509081533 | 72 | 147 | 0.0 | 2.0 | 0.00 | 0.00 | 0.00 | 93 | 1011.2 |
| 20260509081528 | 72 | 190 | 0.0 | 2.0 | 0.00 | 0.00 | 0.00 | 93 | 1011.9 |
| 20260509081014 | 72 | 190 | 0.0 | 2.0 | 0.00 | 0.00 | 0.00 | 93 | 1011.7 |
| 20260509081005 | 72 | 147 | 0.0 | 2.0 | 0.00 | 0.00 | 0.00 | 93 | 1011.1 |
| 20260509080506 | 72 | 190 | 0.0 | 0.0 | 0.00 | 0.00 | 0.00 | 93 | 1011.8 |
| 20260509080501 | 72 | 147 | 0.0 | 0.0 | 0.00 | 0.00 | 0.00 | 93 | 1011.2 |
| 20260509080024 | 72 | 190 | 0.0 | 1.0 | 0.00 | 0.00 | 0.00 | 93 | 1011.9 |
| 20260509080006 | 72 | 147 | 0.0 | 2.0 | 0.00 | 0.00 | 0.00 | 93 | 1011.2 |
| 20260509075509 | 72 | 190 | 0.0 | 2.0 | 0.00 | 0.00 | 0.00 | 93 | 1012.0 |
| 20260509075502 | 72 | 147 | 0.0 | 2.0 | 0.00 | 0.00 | 0.00 | 93 | 1011.4 |
| 20260509075003 | 72 | 190 | 0.0 | 2.0 | 0.00 | 0.00 | 0.00 | 93 | 1011.9 |
| 20260509074531 | 72 | 190 | 0.0 | 2.0 | 0.00 | 0.00 | 0.00 | 93 | 1011.9 |
| 20260509074512 | 72 | 147 | 0.0 | 2.0 | 0.00 | 0.00 | 0.00 | 93 | 1011.3 |
| 20260509074008 | 72 | 147 | 0.0 | 1.0 | 0.00 | 0.00 | 0.00 | 93 | 1011.3 |
| 20260509074003 | 72 | 190 | 0.0 | 1.0 | 0.00 | 0.00 | 0.00 | 93 | 1011.9 |
| 20260509073509 | 72 | 190 | 0.0 | 1.0 | 0.00 | 0.00 | 0.00 | 93 | 1011.7 |
| 20260509073505 | 72 | 147 | 0.0 | 2.0 | 0.00 | 0.00 | 0.00 | 93 | 1011.2 |
| 20260509073034 | 72 | 147 | 0.0 | 2.0 | 0.00 | 0.00 | 0.00 | 93 | 1011.2 |
| 20260509073020 | 72 | 200 | 0.0 | 0.0 | 0.00 | 0.00 | 0.00 | 93 | 1011.8 |
| 20260509072514 | 72 | 200 | 0.0 | 2.0 | 0.00 | 0.00 | 0.00 | 93 | 1011.8 |
| 20260509072507 | 72 | 147 | 0.0 | 4.0 | 0.00 | 0.00 | 0.00 | 93 | 1011.2 |
| 20260509072009 | 73 | 200 | 0.0 | 2.0 | 0.00 | 0.00 | 0.00 | 93 | 1011.7 |
| 20260509072002 | 73 | 147 | 0.0 | 4.0 | 0.00 | 0.00 | 0.00 | 93 | 1011.1 |
| 20260509071528 | 73 | 115 | 0.0 | 3.0 | 0.00 | 0.00 | 0.00 | 92 | 1011.0 |
| 20260509071520 | 73 | 180 | 0.0 | 2.0 | 0.00 | 0.00 | 0.00 | 92 | 1011.6 |
| 20260509071007 | 73 | 171 | 0.0 | 2.0 | 0.00 | 0.00 | 0.00 | 92 | 1011.7 |
| 20260509070513 | 73 | 160 | 2.0 | 5.0 | 0.00 | 0.00 | 0.00 | 92 | 1010.8 |
| 20260509070507 | 73 | 193 | 0.0 | 2.0 | 0.00 | 0.00 | 0.00 | 92 | 1011.4 |
| 20260509070032 | 73 | 117 | 0.0 | 2.0 | 0.00 | 0.00 | 0.00 | 92 | 1011.4 |
| 20260509070017 | 73 | 163 | 1.0 | 4.0 | 0.00 | 0.00 | 0.00 | 92 | 1010.8 |
| 20260509065513 | 73 | 76 | 0.0 | 3.0 | 0.00 | 0.00 | 0.00 | 92 | 1011.3 |
| 20260509065504 | 73 | 160 | 1.0 | 6.0 | 0.00 | 0.00 | 0.00 | 92 | 1010.8 |
| 20260509065010 | 73 | 131 | 0.0 | 3.0 | 0.00 | 0.00 | 0.00 | 92 | 1011.5 |
| 20260509065002 | 73 | 168 | 2.0 | 6.0 | 0.00 | 0.00 | 0.00 | 92 | 1010.9 |
| 20260509064527 | 73 | 137 | 0.0 | 2.0 | 0.00 | 0.00 | 0.00 | 92 | 1011.6 |
| 20260509064506 | 73 | 147 | 1.0 | 5.0 | 0.00 | 0.00 | 0.00 | 92 | 1011.0 |
| 20260509064008 | 73 | 164 | 2.0 | 5.0 | 0.00 | 0.00 | 0.00 | 92 | 1010.9 |
| 20260509063506 | 73 | 178 | 0.0 | 2.0 | 0.00 | 0.00 | 0.00 | 91 | 1011.5 |
| 20260509063018 | 73 | 169 | 1.0 | 6.0 | 0.00 | 0.00 | 0.00 | 91 | 1010.9 |
| 20260509062510 | 73 | 144 | 0.0 | 4.0 | 0.00 | 0.00 | 0.00 | 91 | 1011.4 |
| 20260509062503 | 73 | 207 | 1.0 | 9.0 | 0.00 | 0.00 | 0.00 | 91 | 1010.8 |
| 20260509062007 | 73 | 163 | 1.0 | 9.0 | 0.00 | 0.00 | 0.00 | 91 | 1010.6 |
| 20260509062004 | 73 | 180 | 1.0 | 4.0 | 0.00 | 0.00 | 0.00 | 91 | 1011.2 |
| 20260509061523 | 73 | 155 | 0.0 | 4.0 | 0.00 | 0.00 | 0.00 | 91 | 1010.5 |
| 20260509061521 | 73 | 207 | 0.0 | 2.0 | 0.00 | 0.00 | 0.00 | 91 | 1011.2 |
| 20260509061008 | 73 | 262 | 0.0 | 2.0 | 0.00 | 0.00 | 0.00 | 91 | 1011.2 |
| 20260509060506 | 73 | 149 | 0.0 | 8.0 | 0.00 | 0.00 | 0.00 | 91 | 1010.9 |
| 20260509060022 | 73 | 171 | 1.0 | 3.0 | 0.00 | 0.00 | 0.00 | 91 | 1011.5 |
| 20260509060004 | 73 | 186 | 2.0 | 11.0 | 0.00 | 0.00 | 0.00 | 91 | 1010.8 |
| 20260509055508 | 73 | 173 | 0.0 | 3.0 | 0.00 | 0.00 | 0.00 | 91 | 1011.4 |
| 20260509055504 | 73 | 162 | 4.0 | 11.0 | 0.00 | 0.00 | 0.00 | 91 | 1010.8 |
| 20260509055010 | 73 | 146 | 0.0 | 3.0 | 0.00 | 0.00 | 0.00 | 91 | 1011.4 |
| 20260509055004 | 73 | 150 | 3.0 | 8.0 | 0.00 | 0.00 | 0.00 | 91 | 1010.7 |
| 20260509054520 | 73 | 174 | 1.0 | 4.0 | 0.00 | 0.00 | 0.00 | 91 | 1011.4 |
| 20260509054511 | 73 | 161 | 1.0 | 9.0 | 0.00 | 0.00 | 0.00 | 91 | 1010.8 |
| 20260509054012 | 73 | 119 | 1.0 | 4.0 | 0.00 | 0.00 | 0.00 | 91 | 1011.3 |
| 20260509054003 | 73 | 148 | 3.0 | 9.0 | 0.00 | 0.00 | 0.00 | 91 | 1010.8 |
| 20260509053509 | 73 | 192 | 0.0 | 3.0 | 0.00 | 0.00 | 0.00 | 91 | 1011.2 |
| 20260509053503 | 73 | 167 | 2.0 | 6.0 | 0.00 | 0.00 | 0.00 | 91 | 1010.5 |
| 20260509053024 | 73 | 181 | 0.0 | 3.0 | 0.00 | 0.00 | 0.00 | 91 | 1011.1 |
| 20260509053013 | 73 | 148 | 2.0 | 6.0 | 0.00 | 0.00 | 0.00 | 91 | 1010.4 |
| 20260509052513 | 73 | 147 | 1.0 | 4.0 | 0.00 | 0.00 | 0.00 | 90 | 1011.2 |
| 20260509052506 | 73 | 82 | 2.0 | 6.0 | 0.00 | 0.00 | 0.00 | 90 | 1010.5 |
| 20260509052007 | 73 | 208 | 1.0 | 4.0 | 0.00 | 0.00 | 0.00 | 90 | 1011.2 |
| 20260509052002 | 73 | 154 | 3.0 | 9.0 | 0.00 | 0.00 | 0.00 | 90 | 1010.4 |
| 20260509051519 | 73 | 217 | 0.0 | 3.0 | 0.00 | 0.00 | 0.00 | 90 | 1011.0 |
| 20260509051510 | 73 | 141 | 2.0 | 9.0 | 0.00 | 0.00 | 0.00 | 90 | 1010.2 |
| 20260509051007 | 73 | 126 | 3.0 | 8.0 | 0.00 | 0.00 | 0.00 | 90 | 1010.2 |
| 20260509050511 | 73 | 195 | 1.0 | 4.0 | 0.00 | 0.00 | 0.00 | 90 | 1011.0 |
| 20260509050502 | 73 | 145 | 3.0 | 7.0 | 0.00 | 0.00 | 0.00 | 90 | 1010.3 |
| 20260509050041 | 73 | 193 | 1.0 | 2.0 | 0.00 | 0.00 | 0.00 | 90 | 1011.1 |
| 20260509050007 | 73 | 138 | 2.0 | 8.0 | 0.00 | 0.00 | 0.00 | 90 | 1010.4 |
| 20260509045507 | 73 | 186 | 1.0 | 2.0 | 0.00 | 0.00 | 0.00 | 90 | 1011.2 |
| 20260509045504 | 73 | 172 | 3.0 | 8.0 | 0.00 | 0.00 | 0.00 | 90 | 1010.5 |
| 20260509045009 | 73 | 205 | 0.0 | 2.0 | 0.00 | 0.00 | 0.00 | 90 | 1011.2 |
| 20260509045002 | 73 | 144 | 3.0 | 8.0 | 0.00 | 0.00 | 0.00 | 90 | 1010.4 |
| 20260509044529 | 72 | 174 | 0.0 | 2.0 | 0.00 | 0.00 | 0.00 | 90 | 1011.2 |
| 20260509044509 | 72 | 146 | 2.0 | 5.0 | 0.00 | 0.00 | 0.00 | 90 | 1010.5 |
| 20260509044015 | 72 | 132 | 0.0 | 2.0 | 0.00 | 0.00 | 0.00 | 90 | 1011.2 |
| 20260509044003 | 72 | 86 | 1.0 | 5.0 | 0.00 | 0.00 | 0.00 | 90 | 1010.5 |
| 20260509043507 | 72 | 81 | 0.0 | 2.0 | 0.00 | 0.00 | 0.00 | 91 | 1011.1 |
| 20260509043503 | 72 | 153 | 1.0 | 5.0 | 0.00 | 0.00 | 0.00 | 91 | 1010.5 |
| 20260509043035 | 72 | 171 | 0.0 | 2.0 | 0.00 | 0.00 | 0.00 | 91 | 1011.1 |
| 20260509043002 | 72 | 171 | 1.0 | 4.0 | 0.00 | 0.00 | 0.00 | 91 | 1010.4 |
| 20260509042511 | 72 | 142 | 0.0 | 2.0 | 0.00 | 0.00 | 0.00 | 90 | 1011.1 |
| 20260509042503 | 72 | 148 | 0.0 | 3.0 | 0.00 | 0.00 | 0.00 | 90 | 1010.4 |
| 20260509042014 | 72 | 165 | 0.0 | 2.0 | 0.00 | 0.00 | 0.00 | 90 | 1011.2 |
| 20260509042007 | 72 | 148 | 1.0 | 2.0 | 0.00 | 0.00 | 0.00 | 90 | 1010.5 |
| 20260509041524 | 72 | 165 | 0.0 | 2.0 | 0.00 | 0.00 | 0.00 | 90 | 1011.2 |
| 20260509041515 | 72 | 148 | 1.0 | 3.0 | 0.00 | 0.00 | 0.00 | 90 | 1010.5 |
| 20260509041009 | 72 | 183 | 0.0 | 2.0 | 0.00 | 0.00 | 0.00 | 90 | 1011.3 |
| 20260509041003 | 72 | 136 | 1.0 | 3.0 | 0.00 | 0.00 | 0.00 | 90 | 1010.6 |
| 20260509040507 | 72 | 152 | 1.0 | 3.0 | 0.00 | 0.00 | 0.00 | 89 | 1010.6 |
| 20260509040022 | 72 | 148 | 1.0 | 3.0 | 0.00 | 0.00 | 0.00 | 89 | 1010.5 |
| 20260509035508 | 72 | 188 | 0.0 | 2.0 | 0.00 | 0.00 | 0.00 | 89 | 1011.1 |
| 20260509035504 | 72 | 221 | 1.0 | 3.0 | 0.00 | 0.00 | 0.00 | 89 | 1010.4 |
| 20260509035010 | 72 | 148 | 0.0 | 2.0 | 0.00 | 0.00 | 0.00 | 89 | 1011.0 |
| 20260509035003 | 72 | 153 | 1.0 | 4.0 | 0.00 | 0.00 | 0.00 | 89 | 1010.3 |
| 20260509034523 | 72 | 149 | 0.0 | 1.0 | 0.00 | 0.00 | 0.00 | 89 | 1011.0 |
| 20260509034504 | 72 | 150 | 1.0 | 4.0 | 0.00 | 0.00 | 0.00 | 89 | 1010.3 |
| 20260509034008 | 72 | 149 | 0.0 | 2.0 | 0.00 | 0.00 | 0.00 | 89 | 1010.9 |
| 20260509034003 | 72 | 133 | 0.0 | 2.0 | 0.00 | 0.00 | 0.00 | 89 | 1010.2 |
| 20260509033512 | 72 | 134 | 0.0 | 2.0 | 0.00 | 0.00 | 0.00 | 89 | 1011.0 |
| 20260509033502 | 72 | 126 | 0.0 | 2.0 | 0.00 | 0.00 | 0.00 | 89 | 1010.2 |
| 20260509033036 | 72 | 130 | 0.0 | 2.0 | 0.00 | 0.00 | 0.00 | 89 | 1011.0 |
| 20260509033008 | 72 | 126 | 0.0 | 2.0 | 0.00 | 0.00 | 0.00 | 89 | 1010.2 |
| 20260509032516 | 72 | 130 | 0.0 | 2.0 | 0.00 | 0.00 | 0.00 | 88 | 1011.0 |
| 20260509032504 | 72 | 96 | 0.0 | 2.0 | 0.00 | 0.00 | 0.00 | 88 | 1010.2 |
| 20260509032013 | 72 | 101 | 0.0 | 2.0 | 0.00 | 0.00 | 0.00 | 88 | 1010.9 |
| 20260509032006 | 72 | 96 | 0.0 | 2.0 | 0.00 | 0.00 | 0.00 | 88 | 1010.2 |
| 20260509031532 | 73 | 142 | 0.0 | 2.0 | 0.00 | 0.00 | 0.00 | 88 | 1010.8 |
| 20260509031511 | 73 | 146 | 0.0 | 2.0 | 0.00 | 0.00 | 0.00 | 88 | 1010.1 |
| 20260509031012 | 73 | 142 | 0.0 | 2.0 | 0.00 | 0.00 | 0.00 | 88 | 1010.8 |
| 20260509031006 | 73 | 146 | 0.0 | 2.0 | 0.00 | 0.00 | 0.00 | 88 | 1010.0 |
| 20260509030510 | 73 | 165 | 0.0 | 2.0 | 0.00 | 0.00 | 0.00 | 87 | 1010.7 |
| 20260509030506 | 73 | 103 | 0.0 | 2.0 | 0.00 | 0.00 | 0.00 | 87 | 1010.0 |
| 20260509030020 | 73 | 107 | 0.0 | 2.0 | 0.00 | 0.00 | 0.00 | 87 | 1010.7 |
| 20260509030007 | 73 | 103 | 0.0 | 2.0 | 0.00 | 0.00 | 0.00 | 87 | 1009.9 |
| 20260509025507 | 73 | 133 | 0.0 | 2.0 | 0.00 | 0.00 | 0.00 | 87 | 1010.7 |
| 20260509025504 | 73 | 113 | 0.0 | 2.0 | 0.00 | 0.00 | 0.00 | 87 | 1009.9 |
| 20260509025009 | 74 | 117 | 0.0 | 2.0 | 0.00 | 0.00 | 0.00 | 86 | 1010.6 |
| 20260509025006 | 74 | 113 | 0.0 | 2.0 | 0.00 | 0.00 | 0.00 | 86 | 1009.8 |
| 20260509024527 | 74 | 232 | 0.0 | 2.0 | 0.00 | 0.00 | 0.00 | 86 | 1010.5 |
| 20260509024014 | 74 | 202 | 0.0 | 2.0 | 0.00 | 0.00 | 0.00 | 86 | 1010.4 |
| 20260509024004 | 74 | 67 | 1.0 | 3.0 | 0.00 | 0.00 | 0.00 | 86 | 1009.7 |
| 20260509023509 | 74 | 140 | 0.0 | 2.0 | 0.00 | 0.00 | 0.00 | 85 | 1010.4 |
| 20260509023502 | 74 | 95 | 0.0 | 2.0 | 0.00 | 0.00 | 0.00 | 85 | 1009.8 |
| 20260509023008 | 74 | 95 | 0.0 | 2.0 | 0.00 | 0.00 | 0.00 | 85 | 1009.7 |
| 20260509023006 | 74 | 112 | 0.0 | 2.0 | 0.00 | 0.00 | 0.00 | 85 | 1010.4 |
| 20260509022504 | 74 | 90 | 1.0 | 2.0 | 0.00 | 0.00 | 0.00 | 85 | 1009.7 |
| 20260509022502 | 74 | 78 | 0.0 | 2.0 | 0.00 | 0.00 | 0.00 | 85 | 1010.3 |
| 20260509022005 | 74 | 180 | 0.0 | 3.0 | 0.00 | 0.00 | 0.00 | 85 | 1010.3 |
| 20260509021512 | 74 | 96 | 0.0 | 2.0 | 0.00 | 0.00 | 0.00 | 85 | 1009.6 |
| 20260509021004 | 74 | 111 | 0.0 | 2.0 | 0.00 | 0.00 | 0.00 | 84 | 1010.2 |
| 20260509020504 | 74 | 100 | 0.0 | 2.0 | 0.00 | 0.00 | 0.00 | 84 | 1009.4 |
| 20260509020032 | 74 | 116 | 0.0 | 2.0 | 0.00 | 0.00 | 0.00 | 84 | 1009.3 |
| 20260509020017 | 74 | 115 | 0.0 | 2.0 | 0.00 | 0.00 | 0.00 | 84 | 1010.1 |
| 20260509015508 | 74 | 116 | 0.0 | 2.0 | 0.00 | 0.00 | 0.00 | 84 | 1009.4 |
| 20260509015005 | 74 | 116 | 0.0 | 2.0 | 0.00 | 0.00 | 0.00 | 84 | 1009.4 |
| 20260509015001 | 74 | 94 | 0.0 | 2.0 | 0.00 | 0.00 | 0.00 | 84 | 1010.0 |
| 20260509014532 | 75 | 116 | 1.0 | 2.0 | 0.00 | 0.00 | 0.00 | 83 | 1009.4 |
| 20260509014516 | 75 | 149 | 0.0 | 2.0 | 0.00 | 0.00 | 0.00 | 83 | 1010.1 |
| 20260509014007 | 75 | 229 | 0.0 | 2.0 | 0.00 | 0.00 | 0.00 | 83 | 1010.1 |
| 20260509013507 | 75 | 94 | 0.0 | 2.0 | 0.00 | 0.00 | 0.00 | 83 | 1009.4 |
| 20260509013503 | 75 | 265 | 0.0 | 3.0 | 0.00 | 0.00 | 0.00 | 83 | 1010.1 |
| 20260509013012 | 75 | 80 | 1.0 | 2.0 | 0.00 | 0.00 | 0.00 | 83 | 1009.3 |
| 20260509013004 | 75 | 130 | 0.0 | 3.0 | 0.00 | 0.00 | 0.00 | 83 | 1010.1 |
| 20260509012506 | 75 | 80 | 0.0 | 2.0 | 0.00 | 0.00 | 0.00 | 83 | 1009.3 |
| 20260509012503 | 75 | 132 | 0.0 | 2.0 | 0.00 | 0.00 | 0.00 | 83 | 1010.1 |
| 20260509012003 | 75 | 78 | 0.0 | 2.0 | 0.00 | 0.00 | 0.00 | 83 | 1009.4 |
| 20260509011508 | 75 | 92 | 0.0 | 1.0 | 0.00 | 0.00 | 0.00 | 83 | 1010.0 |
| 20260509011003 | 75 | 87 | 1.0 | 2.0 | 0.00 | 0.00 | 0.00 | 83 | 1009.3 |
| 20260509010506 | 75 | 94 | 0.0 | 2.0 | 0.00 | 0.00 | 0.00 | 82 | 1010.0 |
| 20260509010502 | 75 | 87 | 0.0 | 2.0 | 0.00 | 0.00 | 0.00 | 82 | 1009.3 |
| 20260509010016 | 75 | 87 | 0.0 | 2.0 | 0.00 | 0.00 | 0.00 | 82 | 1009.3 |
| 20260509010012 | 75 | 103 | 0.0 | 1.0 | 0.00 | 0.00 | 0.00 | 82 | 1010.1 |
| 20260509005505 | 76 | 105 | 0.0 | 2.0 | 0.00 | 0.00 | 0.00 | 81 | 1010.1 |
| 20260509005503 | 76 | 89 | 0.0 | 2.0 | 0.00 | 0.00 | 0.00 | 81 | 1009.3 |
| 20260509005009 | 76 | 105 | 0.0 | 2.0 | 0.00 | 0.00 | 0.00 | 81 | 1010.0 |
| 20260509005006 | 76 | 89 | 0.0 | 2.0 | 0.00 | 0.00 | 0.00 | 81 | 1009.3 |
| 20260509004522 | 76 | 89 | 0.0 | 2.0 | 0.00 | 0.00 | 0.00 | 81 | 1009.3 |
| 20260509004006 | 76 | 89 | 0.0 | 2.0 | 0.00 | 0.00 | 0.00 | 80 | 1009.3 |
| 20260509004003 | 76 | 82 | 0.0 | 2.0 | 0.00 | 0.00 | 0.00 | 80 | 1010.0 |
| 20260509003509 | 76 | 82 | 1.0 | 2.0 | 0.00 | 0.00 | 0.00 | 80 | 1009.2 |
| 20260509003505 | 76 | 159 | 0.0 | 2.0 | 0.00 | 0.00 | 0.00 | 80 | 1010.0 |
| 20260509003030 | 76 | 70 | 0.0 | 2.0 | 0.00 | 0.00 | 0.00 | 79 | 1009.2 |
| 20260509003021 | 76 | 156 | 0.0 | 2.0 | 0.00 | 0.00 | 0.00 | 79 | 1009.9 |
| 20260509002513 | 77 | 178 | 0.0 | 2.0 | 0.00 | 0.00 | 0.00 | 80 | 1009.2 |
| 20260509002503 | 77 | 189 | 0.0 | 2.0 | 0.00 | 0.00 | 0.00 | 80 | 1009.9 |
| 20260509002005 | 77 | 111 | 0.0 | 2.0 | 0.00 | 0.00 | 0.00 | 80 | 1010.0 |
| 20260509001519 | 77 | 107 | 0.0 | 3.0 | 0.00 | 0.00 | 0.00 | 80 | 1009.3 |
| 20260509001508 | 77 | 148 | 0.0 | 2.0 | 0.00 | 0.00 | 0.00 | 80 | 1010.1 |
| 20260509001003 | 77 | 150 | 1.0 | 3.0 | 0.00 | 0.00 | 0.00 | 78 | 1009.3 |
| 20260509000503 | 77 | 120 | 0.0 | 2.0 | 0.00 | 0.00 | 0.00 | 78 | 1010.1 |
| 20260509000028 | 77 | 135 | 0.0 | 3.0 | 0.00 | 0.00 | 0.00 | 78 | 1010.0 |
| 20260509000012 | 77 | 113 | 0.0 | 3.0 | 0.00 | 0.00 | 0.00 | 78 | 1009.2 |
| 20260508235506 | 77 | 87 | 1.0 | 3.0 | 0.00 | 0.00 | 0.00 | 79 | 1010.0 |
| 20260508235504 | 77 | 98 | 1.0 | 2.0 | 0.00 | 0.00 | 0.00 | 79 | 1009.2 |
| 20260508235007 | 77 | 129 | 0.0 | 2.0 | 0.00 | 0.00 | 0.00 | 79 | 1009.2 |
| 20260508235004 | 77 | 121 | 0.0 | 2.0 | 0.00 | 0.00 | 0.00 | 79 | 1009.9 |
| 20260508234513 | 77 | 117 | 0.0 | 2.0 | 0.00 | 0.00 | 0.00 | 78 | 1010.1 |
| 20260508234008 | 77 | 112 | 1.0 | 3.0 | 0.00 | 0.00 | 0.00 | 78 | 1009.4 |
| 20260508233507 | 77 | 147 | 0.0 | 3.0 | 0.00 | 0.00 | 0.00 | 78 | 1010.1 |
| 20260508233025 | 78 | 98 | 1.0 | 4.0 | 0.00 | 0.00 | 0.00 | 77 | 1009.3 |
| 20260508233008 | 78 | 131 | 0.0 | 3.0 | 0.00 | 0.00 | 0.00 | 77 | 1010.1 |
| 20260508232507 | 78 | 17 | 0.0 | 3.0 | 0.00 | 0.00 | 0.00 | 77 | 1010.0 |
| 20260508232504 | 78 | 69 | 1.0 | 4.0 | 0.00 | 0.00 | 0.00 | 77 | 1009.2 |
| 20260508232010 | 78 | 96 | 1.0 | 4.0 | 0.00 | 0.00 | 0.00 | 77 | 1009.3 |
| 20260508232007 | 78 | 159 | 0.0 | 3.0 | 0.00 | 0.00 | 0.00 | 77 | 1010.0 |
| 20260508231529 | 78 | 76 | 1.0 | 4.0 | 0.00 | 0.00 | 0.00 | 76 | 1009.3 |
| 20260508231508 | 78 | 171 | 1.0 | 4.0 | 0.00 | 0.00 | 0.00 | 76 | 1010.1 |
| 20260508231007 | 78 | 109 | 1.0 | 6.0 | 0.00 | 0.00 | 0.00 | 77 | 1010.0 |
| 20260508231003 | 78 | 97 | 1.0 | 5.0 | 0.00 | 0.00 | 0.00 | 77 | 1009.3 |
| 20260508230507 | 79 | 61 | 2.0 | 5.0 | 0.00 | 0.00 | 0.00 | 75 | 1009.2 |
| 20260508230505 | 79 | 126 | 2.0 | 6.0 | 0.00 | 0.00 | 0.00 | 75 | 1010.0 |
| 20260508230018 | 80 | 158 | 2.0 | 7.0 | 0.00 | 0.00 | 0.00 | 75 | 1009.2 |
| 20260508230008 | 80 | 189 | 1.0 | 3.0 | 0.00 | 0.00 | 0.00 | 75 | 1009.9 |
| 20260508225503 | 80 | 134 | 1.0 | 7.0 | 0.00 | 0.00 | 0.00 | 74 | 1009.2 |
| 20260508225007 | 79 | 117 | 1.0 | 4.0 | 0.00 | 0.00 | 0.00 | 75 | 1009.9 |
| 20260508224537 | 79 | 186 | 1.0 | 4.0 | 0.00 | 0.00 | 0.00 | 75 | 1009.9 |
| 20260508224516 | 79 | 148 | 1.0 | 7.0 | 0.00 | 0.00 | 0.00 | 75 | 1009.2 |
| 20260508224006 | 79 | 352 | 1.0 | 7.0 | 0.00 | 0.00 | 0.00 | 75 | 1009.9 |
| 20260508223505 | 79 | 166 | 2.0 | 7.0 | 0.00 | 0.00 | 0.00 | 75 | 1009.1 |
| 20260508223023 | 80 | 135 | 2.0 | 6.0 | 0.00 | 0.00 | 0.00 | 77 | 1009.2 |
| 20260508223016 | 80 | 247 | 1.0 | 4.0 | 0.00 | 0.00 | 0.00 | 77 | 1009.8 |
| 20260508222509 | 79 | 223 | 1.0 | 4.0 | 0.00 | 0.00 | 0.00 | 74 | 1009.9 |
| 20260508222007 | 79 | 59 | 2.0 | 9.0 | 0.00 | 0.00 | 0.00 | 74 | 1009.2 |
| 20260508222002 | 79 | 130 | 1.0 | 6.0 | 0.00 | 0.00 | 0.00 | 74 | 1009.8 |
| 20260508221516 | 79 | 85 | 1.0 | 6.0 | 0.00 | 0.00 | 0.00 | 74 | 1010.0 |
| 20260508221514 | 79 | 142 | 1.0 | 7.0 | 0.00 | 0.00 | 0.00 | 74 | 1009.2 |
| 20260508221011 | 79 | 148 | 1.0 | 5.0 | 0.00 | 0.00 | 0.00 | 77 | 1009.3 |
| 20260508221009 | 79 | 182 | 1.0 | 3.0 | 0.00 | 0.00 | 0.00 | 77 | 1010.0 |
| 20260508220510 | 79 | 143 | 1.0 | 4.0 | 0.00 | 0.00 | 0.00 | 75 | 1009.5 |
| 20260508220503 | 79 | 205 | 1.0 | 3.0 | 0.00 | 0.00 | 0.00 | 75 | 1010.1 |
| 20260508220012 | 79 | 157 | 1.0 | 6.0 | 0.00 | 0.00 | 0.00 | 74 | 1009.5 |
| 20260508220010 | 79 | 164 | 1.0 | 3.0 | 0.00 | 0.00 | 0.00 | 74 | 1010.1 |
| 20260508215508 | 79 | 161 | 2.0 | 6.0 | 0.00 | 0.00 | 0.00 | 74 | 1009.5 |
| 20260508215503 | 79 | 294 | 1.0 | 3.0 | 0.00 | 0.00 | 0.00 | 74 | 1010.2 |
| 20260508215006 | 79 | 93 | 2.0 | 5.0 | 0.00 | 0.00 | 0.00 | 74 | 1009.5 |
| 20260508214518 | 79 | 167 | 1.0 | 5.0 | 0.00 | 0.00 | 0.00 | 73 | 1009.4 |
| 20260508214516 | 79 | 182 | 1.0 | 4.0 | 0.00 | 0.00 | 0.00 | 73 | 1010.0 |
| 20260508214006 | 79 | 360 | 0.0 | 8.0 | 0.00 | 0.00 | 0.00 | 75 | 1010.1 |
| 20260508213507 | 79 | 126 | 1.0 | 8.0 | 0.00 | 0.00 | 0.00 | 73 | 1010.1 |
| 20260508213029 | 79 | 58 | 2.0 | 8.0 | 0.00 | 0.00 | 0.00 | 73 | 1010.1 |
| 20260508213025 | 79 | 324 | 1.0 | 7.0 | 0.00 | 0.00 | 0.00 | 73 | 1009.4 |
| 20260508212506 | 80 | 5 | 1.0 | 4.0 | 0.00 | 0.00 | 0.00 | 71 | 1009.5 |
| 20260508212504 | 80 | 140 | 2.0 | 5.0 | 0.00 | 0.00 | 0.00 | 71 | 1010.2 |
| 20260508212011 | 80 | 140 | 1.0 | 3.0 | 0.00 | 0.00 | 0.00 | 73 | 1009.6 |
| 20260508212008 | 80 | 150 | 0.0 | 4.0 | 0.00 | 0.00 | 0.00 | 73 | 1010.2 |
| 20260508211528 | 80 | 81 | 1.0 | 5.0 | 0.00 | 0.00 | 0.00 | 72 | 1009.7 |
| 20260508211525 | 80 | 132 | 1.0 | 4.0 | 0.00 | 0.00 | 0.00 | 72 | 1010.4 |
| 20260508211008 | 80 | 134 | 2.0 | 5.0 | 0.00 | 0.00 | 0.00 | 71 | 1009.8 |
| 20260508211006 | 80 | 162 | 1.0 | 4.0 | 0.00 | 0.00 | 0.00 | 71 | 1010.5 |
| 20260508210507 | 80 | 141 | 0.0 | 3.0 | 0.00 | 0.00 | 0.00 | 71 | 1009.9 |
| 20260508210028 | 80 | 87 | 1.0 | 2.0 | 0.00 | 0.00 | 0.00 | 73 | 1010.7 |
| 20260508210004 | 80 | 121 | 0.0 | 10.0 | 0.00 | 0.00 | 0.00 | 73 | 1010.0 |
| 20260508205505 | 80 | 52 | 1.0 | 2.0 | 0.00 | 0.00 | 0.00 | 74 | 1010.7 |
| 20260508205007 | 80 | 57 | 0.0 | 2.0 | 0.00 | 0.00 | 0.00 | 72 | 1010.9 |
| 20260508204514 | 80 | 153 | 0.0 | 3.0 | 0.00 | 0.00 | 0.00 | 76 | 1010.9 |
| 20260508204504 | 80 | 143 | 1.0 | 4.0 | 0.00 | 0.00 | 0.00 | 76 | 1010.2 |
| 20260508204006 | 79 | 9 | 1.0 | 4.0 | 0.00 | 0.00 | 0.00 | 71 | 1011.0 |
| 20260508204003 | 79 | 343 | 1.0 | 4.0 | 0.00 | 0.00 | 0.00 | 71 | 1010.3 |
| 20260508203505 | 80 | 28 | 1.0 | 4.0 | 0.00 | 0.00 | 0.00 | 72 | 1011.1 |
| 20260508203502 | 80 | 183 | 0.0 | 6.0 | 0.00 | 0.00 | 0.00 | 72 | 1010.4 |
| 20260508203020 | 80 | 352 | 2.0 | 6.0 | 0.00 | 0.00 | 0.00 | 73 | 1010.4 |
| 20260508203015 | 80 | 30 | 1.0 | 4.0 | 0.00 | 0.00 | 0.00 | 73 | 1011.2 |
| 20260508202507 | 80 | 189 | 1.0 | 4.0 | 0.00 | 0.00 | 0.00 | 71 | 1011.4 |
| 20260508202503 | 80 | 77 | 1.0 | 6.0 | 0.00 | 0.00 | 0.00 | 71 | 1010.6 |
| 20260508202006 | 79 | 105 | 1.0 | 4.0 | 0.00 | 0.00 | 0.00 | 73 | 1011.4 |
| 20260508202002 | 79 | 336 | 1.0 | 4.0 | 0.00 | 0.00 | 0.00 | 73 | 1010.6 |
| 20260508201512 | 79 | 337 | 1.0 | 3.0 | 0.00 | 0.00 | 0.00 | 71 | 1011.6 |
| 20260508201504 | 79 | 333 | 1.0 | 8.0 | 0.00 | 0.00 | 0.00 | 71 | 1010.8 |
| 20260508201007 | 80 | 167 | 1.0 | 5.0 | 0.00 | 0.00 | 0.00 | 70 | 1011.4 |
| 20260508201004 | 80 | 113 | 1.0 | 10.0 | 0.00 | 0.00 | 0.00 | 70 | 1010.7 |
| 20260508200508 | 80 | 238 | 2.0 | 7.0 | 0.00 | 0.00 | 0.00 | 70 | 1011.4 |
| 20260508200503 | 80 | 154 | 5.0 | 10.0 | 0.00 | 0.00 | 0.00 | 70 | 1010.7 |
| 20260508200026 | 80 | 306 | 1.0 | 7.0 | 0.00 | 0.00 | 0.00 | 72 | 1011.5 |
| 20260508200008 | 80 | 64 | 2.0 | 7.0 | 0.00 | 0.00 | 0.00 | 72 | 1010.7 |
| 20260508195506 | 78 | 244 | 1.0 | 5.0 | 0.00 | 0.00 | 0.00 | 72 | 1011.5 |
| 20260508195503 | 78 | 148 | 2.0 | 7.0 | 0.00 | 0.00 | 0.00 | 72 | 1010.7 |
| 20260508195009 | 79 | 128 | 1.0 | 4.0 | 0.00 | 0.00 | 0.00 | 76 | 1011.6 |
| 20260508195002 | 79 | 105 | 2.0 | 7.0 | 0.00 | 0.00 | 0.00 | 76 | 1010.9 |
| 20260508194514 | 78 | 128 | 1.0 | 4.0 | 0.00 | 0.00 | 0.00 | 73 | 1011.7 |
| 20260508194510 | 78 | 61 | 2.0 | 7.0 | 0.00 | 0.00 | 0.00 | 73 | 1011.0 |
| 20260508194007 | 78 | 43 | 1.0 | 6.0 | 0.00 | 0.00 | 0.00 | 74 | 1011.7 |
| 20260508194004 | 78 | 317 | 1.0 | 7.0 | 0.00 | 0.00 | 0.00 | 74 | 1011.1 |
| 20260508193504 | 78 | 162 | 2.0 | 6.0 | 0.00 | 0.00 | 0.00 | 75 | 1011.8 |
| 20260508193016 | 78 | 169 | 1.0 | 4.0 | 0.00 | 0.00 | 0.00 | 72 | 1011.9 |
| 20260508193006 | 78 | 158 | 1.0 | 8.0 | 0.00 | 0.00 | 0.00 | 72 | 1011.1 |
| 20260508192508 | 78 | 11 | 1.0 | 4.0 | 0.00 | 0.00 | 0.00 | 73 | 1011.8 |
| 20260508192504 | 78 | 89 | 3.0 | 8.0 | 0.00 | 0.00 | 0.00 | 73 | 1011.1 |
| 20260508192013 | 78 | 151 | 2.0 | 7.0 | 0.00 | 0.00 | 0.00 | 73 | 1011.1 |
| 20260508191520 | 78 | 87 | 2.0 | 4.0 | 0.00 | 0.00 | 0.00 | 72 | 1011.9 |
| 20260508191511 | 78 | 45 | 1.0 | 7.0 | 0.00 | 0.00 | 0.00 | 72 | 1011.1 |
| 20260508191007 | 77 | 221 | 1.0 | 4.0 | 0.00 | 0.00 | 0.00 | 74 | 1012.0 |
| 20260508191003 | 77 | 94 | 3.0 | 7.0 | 0.00 | 0.00 | 0.00 | 74 | 1011.2 |
| 20260508190504 | 76 | 227 | 0.0 | 4.0 | 0.00 | 0.00 | 0.00 | 78 | 1012.1 |
| 20260508190502 | 76 | 157 | 2.0 | 5.0 | 0.00 | 0.00 | 0.00 | 78 | 1011.4 |
| 20260508190021 | 76 | 89 | 1.0 | 3.0 | 0.00 | 0.00 | 0.00 | 75 | 1012.1 |
| 20260508190012 | 76 | 98 | 1.0 | 6.0 | 0.00 | 0.00 | 0.00 | 75 | 1011.5 |
| 20260508185509 | 75 | 138 | 0.0 | 3.0 | 0.00 | 0.00 | 0.00 | 76 | 1012.2 |
| 20260508185502 | 75 | 150 | 2.0 | 6.0 | 0.00 | 0.00 | 0.00 | 76 | 1011.5 |
| 20260508185004 | 76 | 134 | 1.0 | 5.0 | 0.00 | 0.00 | 0.00 | 76 | 1011.7 |
| 20260508184524 | 75 | 164 | 0.0 | 4.0 | 0.00 | 0.00 | 0.00 | 76 | 1012.4 |
| 20260508184508 | 75 | 148 | 0.0 | 5.0 | 0.00 | 0.00 | 0.00 | 76 | 1011.9 |
| 20260508184006 | 76 | 194 | 1.0 | 4.0 | 0.00 | 0.00 | 0.00 | 76 | 1012.4 |
| 20260508184004 | 76 | 51 | 1.0 | 4.0 | 0.00 | 0.00 | 0.00 | 76 | 1011.9 |
| 20260508183502 | 76 | 151 | 1.0 | 5.0 | 0.00 | 0.00 | 0.00 | 75 | 1012.0 |
| 20260508183014 | 76 | 203 | 0.0 | 4.0 | 0.00 | 0.00 | 0.00 | 75 | 1012.7 |
| 20260508183012 | 76 | 150 | 3.0 | 6.0 | 0.00 | 0.00 | 0.00 | 75 | 1012.1 |
| 20260508182504 | 76 | 153 | 1.0 | 6.0 | 0.00 | 0.00 | 0.00 | 74 | 1012.1 |
| 20260508182008 | 76 | 121 | 1.0 | 5.0 | 0.00 | 0.00 | 0.00 | 74 | 1012.8 |
| 20260508182003 | 76 | 49 | 1.0 | 5.0 | 0.00 | 0.00 | 0.00 | 74 | 1012.1 |
| 20260508181512 | 76 | 142 | 1.0 | 4.0 | 0.00 | 0.00 | 0.00 | 73 | 1012.8 |
| 20260508181007 | 76 | 91 | 1.0 | 4.0 | 0.00 | 0.00 | 0.00 | 75 | 1012.9 |
| 20260508180508 | 76 | 219 | 0.0 | 2.0 | 0.00 | 0.00 | 0.00 | 75 | 1012.9 |
| 20260508180503 | 76 | 158 | 3.0 | 6.0 | 0.00 | 0.00 | 0.00 | 75 | 1012.2 |
| 20260508180024 | 75 | 93 | 1.0 | 2.0 | 0.00 | 0.00 | 0.00 | 77 | 1012.9 |
| 20260508180008 | 75 | 165 | 2.0 | 4.0 | 0.00 | 0.00 | 0.00 | 77 | 1012.3 |
| 20260508175507 | 75 | 82 | 1.0 | 2.0 | 0.00 | 0.00 | 0.00 | 75 | 1013.0 |
| 20260508175503 | 75 | 169 | 0.0 | 3.0 | 0.00 | 0.00 | 0.00 | 75 | 1012.3 |
| 20260508175011 | 75 | 136 | 1.0 | 3.0 | 0.00 | 0.00 | 0.00 | 76 | 1013.0 |
| 20260508175003 | 75 | 132 | 1.0 | 4.0 | 0.00 | 0.00 | 0.00 | 76 | 1012.3 |
| 20260508174526 | 75 | 252 | 1.0 | 3.0 | 0.00 | 0.00 | 0.00 | 78 | 1013.1 |
| 20260508174505 | 75 | 140 | 1.0 | 4.0 | 0.00 | 0.00 | 0.00 | 78 | 1012.4 |
| 20260508174018 | 74 | 253 | 1.0 | 2.0 | 0.00 | 0.00 | 0.00 | 76 | 1013.2 |
| 20260508174004 | 74 | 210 | 1.0 | 3.0 | 0.00 | 0.00 | 0.00 | 76 | 1012.4 |
| 20260508173507 | 74 | 50 | 0.0 | 3.0 | 0.00 | 0.00 | 0.00 | 78 | 1013.3 |
| 20260508173504 | 74 | 64 | 0.0 | 3.0 | 0.00 | 0.00 | 0.00 | 78 | 1012.4 |
| 20260508173027 | 73 | 46 | 1.0 | 3.0 | 0.00 | 0.00 | 0.00 | 77 | 1013.3 |
| 20260508173004 | 73 | 346 | 1.0 | 7.0 | 0.00 | 0.00 | 0.00 | 77 | 1012.4 |
| 20260508172505 | 74 | 60 | 1.0 | 3.0 | 0.00 | 0.00 | 0.00 | 77 | 1013.5 |
| 20260508172007 | 74 | 158 | 3.0 | 6.0 | 0.00 | 0.00 | 0.00 | 77 | 1012.5 |
| 20260508171528 | 74 | 26 | 1.0 | 3.0 | 0.00 | 0.00 | 0.00 | 76 | 1013.5 |
| 20260508171524 | 74 | 327 | 1.0 | 4.0 | 0.00 | 0.00 | 0.00 | 76 | 1012.6 |
| 20260508171010 | 74 | 352 | 1.0 | 3.0 | 0.00 | 0.00 | 0.00 | 75 | 1013.4 |
| 20260508171003 | 74 | 115 | 1.0 | 4.0 | 0.00 | 0.00 | 0.00 | 75 | 1012.5 |
| 20260508170505 | 74 | 352 | 1.0 | 5.0 | 0.00 | 0.00 | 0.00 | 75 | 1013.5 |
| 20260508170019 | 74 | 75 | 0.0 | 5.0 | 0.00 | 0.00 | 0.00 | 75 | 1013.6 |
| 20260508165510 | 73 | 213 | 1.0 | 3.0 | 0.00 | 0.00 | 0.00 | 82 | 1013.8 |
| 20260508165508 | 73 | 162 | 1.0 | 3.0 | 0.00 | 0.00 | 0.00 | 82 | 1013.1 |
| 20260508165009 | 72 | 352 | 1.0 | 3.0 | 0.00 | 0.00 | 0.00 | 78 | 1013.8 |
| 20260508165004 | 72 | 321 | 1.0 | 7.0 | 0.00 | 0.00 | 0.00 | 78 | 1013.1 |
| 20260508164521 | 72 | 80 | 0.0 | 3.0 | 0.00 | 0.00 | 0.00 | 80 | 1013.9 |
| 20260508164504 | 72 | 171 | 1.0 | 7.0 | 0.00 | 0.00 | 0.00 | 80 | 1013.1 |
| 20260508164007 | 71 | 335 | 1.0 | 3.0 | 0.00 | 0.00 | 0.00 | 80 | 1014.0 |
| 20260508164004 | 71 | 329 | 1.0 | 6.0 | 0.00 | 0.00 | 0.00 | 80 | 1013.2 |
| 20260508163512 | 71 | 309 | 2.0 | 3.0 | 0.00 | 0.00 | 0.00 | 78 | 1014.0 |
| 20260508163504 | 71 | 333 | 3.0 | 6.0 | 0.00 | 0.00 | 0.00 | 78 | 1013.2 |
| 20260508163027 | 70 | 103 | 1.0 | 3.0 | 0.00 | 0.00 | 0.00 | 82 | 1014.0 |
| 20260508163012 | 70 | 98 | 2.0 | 4.0 | 0.00 | 0.00 | 0.00 | 82 | 1013.2 |
| 20260508162506 | 70 | 50 | 2.0 | 3.0 | 0.00 | 0.00 | 0.00 | 80 | 1014.1 |
| 20260508162504 | 70 | 320 | 2.0 | 4.0 | 0.00 | 0.00 | 0.00 | 80 | 1013.4 |
| 20260508162008 | 70 | 193 | 1.0 | 4.0 | 0.00 | 0.00 | 0.00 | 83 | 1014.2 |
| 20260508162006 | 70 | 65 | 1.0 | 4.0 | 0.00 | 0.00 | 0.00 | 83 | 1013.5 |
| 20260508161518 | 69 | 131 | 1.0 | 4.0 | 0.00 | 0.00 | 0.00 | 81 | 1014.3 |
| 20260508161510 | 69 | 320 | 1.0 | 2.0 | 0.00 | 0.00 | 0.00 | 81 | 1013.6 |
| 20260508161008 | 69 | 31 | 0.0 | 2.0 | 0.00 | 0.00 | 0.00 | 81 | 1013.7 |
| 20260508160508 | 69 | 72 | 1.0 | 2.0 | 0.00 | 0.00 | 0.00 | 81 | 1014.3 |
| 20260508160023 | 69 | 38 | 1.0 | 2.0 | 0.00 | 0.00 | 0.00 | 81 | 1014.4 |
| 20260508160005 | 69 | 153 | 0.0 | 4.0 | 0.00 | 0.00 | 0.00 | 81 | 1013.7 |
| 20260508155506 | 69 | 178 | 0.0 | 2.0 | 0.00 | 0.00 | 0.00 | 79 | 1014.3 |
| 20260508155009 | 68 | 60 | 0.0 | 2.0 | 0.00 | 0.00 | 0.00 | 81 | 1014.2 |
| 20260508154526 | 68 | 141 | 1.0 | 3.0 | 0.00 | 0.00 | 0.00 | 80 | 1013.7 |
| 20260508154522 | 68 | 55 | 0.0 | 2.0 | 0.00 | 0.00 | 0.00 | 80 | 1014.4 |
| 20260508154012 | 67 | 148 | 0.0 | 2.0 | 0.00 | 0.00 | 0.00 | 80 | 1014.3 |
| 20260508154005 | 67 | 98 | 1.0 | 3.0 | 0.00 | 0.00 | 0.00 | 80 | 1013.7 |
| 20260508153507 | 67 | 149 | 1.0 | 2.0 | 0.00 | 0.00 | 0.00 | 80 | 1014.3 |
| 20260508153503 | 67 | 24 | 0.0 | 3.0 | 0.00 | 0.00 | 0.00 | 80 | 1013.7 |
| 20260508153021 | 67 | 97 | 1.0 | 2.0 | 0.00 | 0.00 | 0.00 | 81 | 1014.2 |
| 20260508153009 | 67 | 59 | 0.0 | 3.0 | 0.00 | 0.00 | 0.00 | 81 | 1013.6 |
| 20260508152507 | 67 | 201 | 1.0 | 2.0 | 0.00 | 0.00 | 0.00 | 80 | 1014.2 |
| 20260508152504 | 67 | 352 | 1.0 | 3.0 | 0.00 | 0.00 | 0.00 | 80 | 1013.5 |
| 20260508152009 | 67 | 98 | 0.0 | 2.0 | 0.00 | 0.00 | 0.00 | 80 | 1014.3 |
| 20260508152006 | 67 | 64 | 0.0 | 3.0 | 0.00 | 0.00 | 0.00 | 80 | 1013.7 |
| 20260508151528 | 66 | 64 | 1.0 | 3.0 | 0.00 | 0.00 | 0.00 | 80 | 1013.8 |
| 20260508151520 | 66 | 119 | 1.0 | 3.0 | 0.00 | 0.00 | 0.00 | 80 | 1014.4 |
| 20260508151017 | 66 | 71 | 1.0 | 3.0 | 0.00 | 0.00 | 0.00 | 80 | 1014.4 |
| 20260508151006 | 66 | 94 | 0.0 | 4.0 | 0.00 | 0.00 | 0.00 | 80 | 1013.9 |
| 20260508150506 | 66 | 115 | 0.0 | 4.0 | 0.00 | 0.00 | 0.00 | 81 | 1013.7 |
| 20260508150504 | 66 | 142 | 1.0 | 3.0 | 0.00 | 0.00 | 0.00 | 81 | 1014.4 |
| 20260508150028 | 66 | 102 | 0.0 | 3.0 | 0.00 | 0.00 | 0.00 | 79 | 1013.8 |
| 20260508150020 | 66 | 33 | 1.0 | 3.0 | 0.00 | 0.00 | 0.00 | 79 | 1014.4 |
| 20260508145507 | 66 | 184 | 2.0 | 2.0 | 0.00 | 0.00 | 0.00 | 79 | 1014.4 |
| 20260508145007 | 67 | 75 | 0.0 | 3.0 | 0.00 | 0.00 | 0.00 | 80 | 1014.4 |
| 20260508145004 | 67 | 142 | 1.0 | 4.0 | 0.00 | 0.00 | 0.00 | 80 | 1013.8 |
| 20260508144535 | 66 | 75 | 1.0 | 3.0 | 0.00 | 0.00 | 0.00 | 80 | 1014.3 |
| 20260508144514 | 66 | 178 | 1.0 | 4.0 | 0.00 | 0.00 | 0.00 | 80 | 1013.7 |
| 20260508144007 | 66 | 158 | 0.0 | 3.0 | 0.00 | 0.00 | 0.00 | 81 | 1014.4 |
| 20260508143510 | 66 | 121 | 0.0 | 3.0 | 0.00 | 0.00 | 0.00 | 80 | 1014.5 |
| 20260508143024 | 66 | 128 | 1.0 | 3.0 | 0.00 | 0.00 | 0.00 | 81 | 1014.6 |
| 20260508143011 | 66 | 100 | 1.0 | 4.0 | 0.00 | 0.00 | 0.00 | 81 | 1014.1 |
| 20260508142506 | 66 | 103 | 1.0 | 5.0 | 0.00 | 0.00 | 0.00 | 81 | 1014.1 |
| 20260508142502 | 66 | 63 | 0.0 | 5.0 | 0.00 | 0.00 | 0.00 | 81 | 1014.6 |
| 20260508142004 | 65 | 137 | 0.0 | 5.0 | 0.00 | 0.00 | 0.00 | 79 | 1014.6 |
| 20260508141515 | 65 | 88 | 1.0 | 3.0 | 0.00 | 0.00 | 0.00 | 81 | 1014.1 |
| 20260508141510 | 65 | 51 | 0.0 | 3.0 | 0.00 | 0.00 | 0.00 | 81 | 1014.6 |
| 20260508141008 | 64 | 148 | 1.0 | 3.0 | 0.00 | 0.00 | 0.00 | 82 | 1014.7 |
| 20260508141004 | 64 | 346 | 1.0 | 3.0 | 0.00 | 0.00 | 0.00 | 82 | 1014.2 |
| 20260508140506 | 64 | 42 | 0.0 | 2.0 | 0.00 | 0.00 | 0.00 | 84 | 1014.9 |
| 20260508140503 | 64 | 92 | 1.0 | 3.0 | 0.00 | 0.00 | 0.00 | 84 | 1014.3 |
| 20260508140016 | 64 | 42 | 0.0 | 2.0 | 0.00 | 0.00 | 0.00 | 82 | 1015.0 |
| 20260508140014 | 64 | 53 | 0.0 | 2.0 | 0.00 | 0.00 | 0.00 | 82 | 1014.4 |
| 20260508135509 | 64 | 32 | 0.0 | 2.0 | 0.00 | 0.00 | 0.00 | 82 | 1015.1 |
| 20260508135506 | 64 | 5 | 0.0 | 2.0 | 0.00 | 0.00 | 0.00 | 82 | 1014.5 |
| 20260508135006 | 63 | 31 | 0.0 | 2.0 | 0.00 | 0.00 | 0.00 | 83 | 1015.1 |
| 20260508134520 | 63 | 352 | 0.0 | 2.0 | 0.00 | 0.00 | 0.00 | 83 | 1015.0 |
| 20260508134008 | 63 | 342 | 0.0 | 2.0 | 0.00 | 0.00 | 0.00 | 83 | 1014.4 |
| 20260508134006 | 63 | 26 | 0.0 | 2.0 | 0.00 | 0.00 | 0.00 | 83 | 1015.0 |
| 20260508133510 | 63 | 15 | 0.0 | 3.0 | 0.00 | 0.00 | 0.00 | 83 | 1014.3 |
| 20260508133506 | 63 | 64 | 0.0 | 3.0 | 0.00 | 0.00 | 0.00 | 83 | 1015.0 |
| 20260508133022 | 63 | 325 | 0.0 | 3.0 | 0.00 | 0.00 | 0.00 | 84 | 1014.3 |
| 20260508133020 | 63 | 344 | 0.0 | 3.0 | 0.00 | 0.00 | 0.00 | 84 | 1014.7 |
| 20260508132511 | 63 | 311 | 0.0 | 2.0 | 0.00 | 0.00 | 0.00 | 84 | 1014.2 |
| 20260508132506 | 63 | 86 | 0.0 | 2.0 | 0.00 | 0.00 | 0.00 | 84 | 1014.7 |
| 20260508132003 | 62 | 322 | 0.0 | 3.0 | 0.00 | 0.00 | 0.00 | 84 | 1014.2 |
| 20260508131517 | 62 | 311 | 1.0 | 4.0 | 0.00 | 0.00 | 0.00 | 84 | 1014.1 |
| 20260508131508 | 62 | 104 | 1.0 | 3.0 | 0.00 | 0.00 | 0.00 | 84 | 1014.6 |
| 20260508131005 | 62 | 44 | 0.0 | 2.0 | 0.00 | 0.00 | 0.00 | 84 | 1014.7 |
| 20260508130503 | 62 | 311 | 0.0 | 3.0 | 0.00 | 0.00 | 0.00 | 85 | 1014.1 |
| 20260508130014 | 62 | 323 | 0.0 | 3.0 | 0.00 | 0.00 | 0.00 | 85 | 1014.7 |
| 20260508125506 | 61 | 325 | 1.0 | 4.0 | 0.00 | 0.00 | 0.00 | 85 | 1014.1 |
| 20260508125010 | 61 | 307 | 2.0 | 3.0 | 0.00 | 0.00 | 0.00 | 86 | 1014.1 |
| 20260508125007 | 61 | 71 | 0.0 | 4.0 | 0.00 | 0.00 | 0.00 | 86 | 1014.6 |
| 20260508124513 | 61 | 319 | 1.0 | 4.0 | 0.00 | 0.00 | 0.00 | 86 | 1014.9 |
| 20260508124511 | 61 | 317 | 1.0 | 3.0 | 0.00 | 0.00 | 0.00 | 86 | 1014.3 |
| 20260508124010 | 61 | 346 | 1.0 | 3.0 | 0.00 | 0.00 | 0.00 | 86 | 1015.1 |
| 20260508124007 | 61 | 337 | 1.0 | 3.0 | 0.00 | 0.00 | 0.00 | 86 | 1014.5 |
| 20260508123508 | 61 | 330 | 1.0 | 3.0 | 0.00 | 0.00 | 0.00 | 86 | 1014.6 |
| 20260508123505 | 61 | 352 | 0.0 | 3.0 | 0.00 | 0.00 | 0.00 | 86 | 1015.2 |
| 20260508123042 | 61 | 329 | 1.0 | 3.0 | 0.00 | 0.00 | 0.00 | 86 | 1014.4 |
| 20260508123026 | 61 | 352 | 0.0 | 3.0 | 0.00 | 0.00 | 0.00 | 86 | 1015.0 |